Home   Weather   Moreno Valley   Past weeks

Flag for USA Past Weather in Moreno Valley, California, USA — Yesterday and Last 2 Weeks

Now
60 °F

Sunny.


Feels Like: 60 °F
Forecast: 44 / 60 °F
Wind: No wind

Location: Riverside / March Air Force Base

Current Time: Dec 7, 2016 at 2:37:51 pm

Latest Report: Dec 7, 2016 at 1:58 pm


Visibility: 10 mi

Pressure: 30.05 "Hg

Humidity: 41%

Dew Point: 36 °F

Location of Moreno ValleyLocation

Past Weather in Moreno Valley — Graph

°F

Moreno Valley Temperature Yesterday

Maximum temperature yesterday: 58 °F (at 3:58 pm)
Minimum temperature yesterday: 46 °F (at 6:58 am)
Average temperature yesterday: 52 °F

High & Low Weather Summary for the Past Weeks

 TemperatureHumidityPressure
High76 °F (Nov 25, 2:58 pm)100% (Nov 22, 6:58 pm)30.21 "Hg (Nov 22, 6:58 pm)
Low31 °F (Nov 26, 6:58 am)5% (Nov 25, 12:58 pm)29.83 "Hg (Nov 28, 3:58 pm)
Average51 °F63%30.02 "Hg
* Reported Nov 22 12:58 pm — Dec 7 12:58 pm, Moreno Valley, Weather by CustomWeather, © 2016

Note: Actual official high and low records may vary slightly from our data, if they occured in-between our weather recording intervals... More about our weather records

Advertising

Moreno Valley Weather History for the Previous 24 Hours

Scroll right to see more
 ConditionsComfort  
Time TempWeatherWind HumidityBarometerVisibility
12:58 pm
Wed, Dec 7
58 °FSunny.No wind43%30.06 "Hg10 mi
11:58 am56 °FSunny.5 mph67%30.08 "Hg10 mi
10:58 am54 °FBroken clouds.No wind83%30.09 "Hg10 mi
9:58 am52 °FPartly sunny.3 mph100%30.11 "Hg10 mi
8:58 am50 °FSunny.No wind100%30.09 "Hg10 mi
7:58 am46 °FSunny.No wind100%30.07 "Hg10 mi
6:58 am46 °FOvercast.No wind100%30.05 "Hg9 mi
5:59 am45 °FPassing clouds.3 mph100%30.05 "Hg9 mi
4:58 am43 °FClear.No wind100%30.03 "Hg10 mi
3:58 am47 °FClear.3 mph100%30.01 "Hg10 mi
2:58 am46 °FPassing clouds.No wind100%30.02 "Hg10 mi
2:03 am48 °FPassing clouds.3 mph100%30.02 "Hg10 mi
1:58 am47 °FPassing clouds.No wind100%30.01 "Hg10 mi
1:03 am48 °FMostly cloudy.No wind100%30.01 "Hg10 mi
12:58 am48 °FPassing clouds.3 mph100%30.00 "Hg10 mi
11:58 pm
Tue, Dec 6
49 °FPassing clouds.5 mph100%30.00 "Hg10 mi
10:58 pm51 °FOvercast.No wind100%30.00 "Hg10 mi
9:58 pm51 °FPassing clouds.5 mph100%30.00 "Hg10 mi
8:58 pm53 °FPassing clouds.No wind97%29.98 "Hg10 mi
7:58 pm53 °FOvercast.No wind98%29.98 "Hg10 mi
6:58 pm53 °FPassing clouds.5 mph99%29.97 "Hg10 mi
5:58 pm54 °FPassing clouds.No wind85%29.96 "Hg10 mi
4:58 pm56 °FPassing clouds.7 mph71%29.94 "Hg10 mi
3:58 pm58 °FScattered clouds.6 mph64%29.93 "Hg10 mi
Weather by CustomWeather, © 2016

See weather overviewHow to use our weather pages